www.pogodaiklimat.ru

Погода и климат >> Архив погоды >> Франц. Южн. Территории >> Порт-о-Франсе


ПОГОДА в Порт-о-Франсе

  • Прогноз погоды в Порт-о-Франсе
  • Монитор погоды в Порт-о-Франсе

АРХИВ ПОГОДЫ в Порт-о-Франсе

Время (UTC), дата Ветер
(напр.,м/с)
 
Видим.   Явления Облачность Т
(С)
Тd
(С)
f
(%)
Тe
(С)
Тes
(С)
Комфортность P
(гПа)
Po
(гПа)
Тmin
(С)
Tmax
(С)
R
(мм)
R24
(мм)
S
(см)
01 14.09 СЗ 14
{20}
н/о н/о +1.4 -3.3 71 -7 -7 999.7 996.0
02 14.09 СЗ 13
{19}
н/о н/о +1.2 -2.7 75 -7 -7 998.7 995.0
03 14.09 СЗ 14
{19}
н/о н/о +1.3 -2.1 78 -7 -7 997.4 993.7
04 14.09 СЗ 15
{21}
н/о н/о +1.4 -1.3 82 -8 -8 995.8 992.1
05 14.09 СЗ 16
{22}
н/о н/о +1.8 -0.8 83 -7 -7 994.3 990.6
06 14.09 СЗ 12
{21}
н/о н/о +2.1 -1.3 78 -6 -6 993.2 989.5 -0.2
07 14.09 С 7
{16}
н/о н/о +2.1 -0.8 81 -4 -4 991.8 988.1 0.2
08 14.09 СЗ 8
{12}
н/о н/о +2.4 -0.7 80 -4 -4 990.2 986.5
09 14.09 СЗ 8
{13}
н/о н/о +2.4 -0.2 83 -4 -4 988.3 984.6 0.2
10 14.09 З 6
{10}
н/о н/о +2.6 -0.3 81 -3 -3 986.7 983.1
11 14.09 ЮЗ 5
{8}
н/о н/о +2.5 -0.4 81 -3 -3 986.6 983.0
12 14.09 ЮЗ 8
{15}
н/о н/о +0.9 -1.8 82 -6 -6 986.6 982.9 0.2
13 14.09 ЮЗ 10
{13}
н/о н/о +0.7 -3.6 73 -7 -7 986.8 983.1
14 14.09 ЮЗ 11
{15}
н/о н/о +0.4 -4.1 72 -8 -8 987.5 983.8
15 14.09 ЮЗ 11
{15}
н/о н/о +0.1 -4.9 69 -8 -8 988.7 985.0
16 14.09 ЮЗ 12
{16}
н/о н/о -0.2 -5.8 66 -9 -9 988.9 985.2
17 14.09 ЮЗ 15
{22}
н/о н/о -1.6 -5.6 74 -12 -12 989.7 986.0
18 14.09 З 12
{23}
н/о н/о -1.4 -5.8 72 -11 -11 990.7 987.0 +3.0 0.2
19 14.09 З 8
{17}
н/о н/о -1.4 -5.4 74 -9 -9 991.4 987.7
20 14.09 З 12
{15}
н/о н/о -1.8 -5.6 75 -11 -11 992.2 988.5
21 14.09 З 10
{15}
н/о н/о -2.3 -4.3 86 -11 -11 992.9 989.2
22 14.09 З 11
{19}
н/о н/о -2.1 -4.0 87 -11 -11 993.6 989.9
23 14.09 З 9
{18}
н/о н/о -2.8 -4.5 88 -12 -12 994.3 990.5
00 15.09 ЮЗ 16
{23}
н/о н/о -0.9 -3.1 85 -11 -11 994.6 990.9
01 15.09 ЮЗ 15
{24}
н/о н/о -1.4 -3.8 84 -11 -11 995.8 992.1
02 15.09 ЮЗ 15
{24}
н/о н/о -0.9 -6.1 68 -11 -11 997.6 993.9
03 15.09 ЮЗ 17
{27}
н/о н/о -2.2 -4.5 84 -13 -13 998.7 994.9 0.2
04 15.09 ЮЗ 17
{26}
н/о н/о -0.5 -6.7 63 -10 -10 999.7 996.0
05 15.09 ЮЗ 12
{22}
н/о н/о -0.1 -6.5 62 -9 -9 1002.2 998.5
06 15.09 ЮЗ 11
{16}
н/о н/о 0.0 -6.0 64 -8 -8 1003.4 999.7 -2.9 0.4
07 15.09 ЮЗ 12
{15}
н/о н/о +0.7 -6.0 61 -7 -7 1004.2 1000.5
08 15.09 ЮЗ 13
{18}
н/о н/о +0.7 -5.3 64 -8 -8 1004.7 1001.0
09 15.09 ЮЗ 11
{16}
н/о н/о +1.6 -4.7 63 -6 -6 1005.8 1002.1
10 15.09 ЮЗ 12
{17}
н/о н/о +0.5 -5.3 65 -8 -8 1006.4 1002.6
11 15.09 З 6
{17}
н/о н/о +1.1 -5.8 60 -5 -5 1007.3 1003.6
12 15.09 З 5
{12}
н/о н/о +1.0 -5.3 63 -4 -4 1007.4 1003.7
13 15.09 З 7
{9}
н/о н/о +0.6 -5.4 64 -6 -6 1007.7 1003.9
14 15.09 З 6
{8}
н/о н/о +0.2 -5.2 67 -6 -6 1008.0 1004.2
15 15.09 З 8
{10}
н/о н/о +0.5 -4.5 69 -7 -7 1008.2 1004.4
16 15.09 З 8
{11}
н/о н/о +0.8 -4.6 67 -6 -6 1008.2 1004.4
17 15.09 З 8
{12}
н/о н/о +0.8 -4.4 68 -6 -6 1007.9 1004.1
18 15.09 З 10
{12}
н/о н/о +0.8 -4.2 69 -7 -7 1007.5 1003.7 +2.0
19 15.09 З 7
{12}
н/о н/о +0.5 -4.3 70 -6 -6 1007.3 1003.5
20 15.09 З 9
{13}
н/о н/о +0.9 -3.8 71 -6 -6 1006.6 1002.9
21 15.09 З 9
{11}
н/о н/о +1.0 -4.1 69 -6 -6 1006.3 1002.6
22 15.09 СЗ 4
{11}
н/о н/о -0.2 -5.2 69 -5 -5 1006.1 1002.3
23 15.09 З 8
{12}
н/о н/о +0.9 -4.2 69 -6 -6 1005.2 1001.5
00 16.09 З 7
{12}
н/о н/о +0.5 -4.2 71 -6 -6 1005.0 1001.3
01 16.09 З 7
{12}
н/о н/о +1.1 -3.6 71 -5 -5 1005.0 1001.3
02 16.09 З 9
{14}
н/о н/о +1.3 -3.6 70 -6 -6 1004.6 1000.9
03 16.09 З 10
{14}
30 км 9/8 800 м
[Cu Sc Ac lent]
+1.5 -3.6 69 -6 -6 1004.5 1000.8
04 16.09 З 10
{14}
н/о н/о +2.1 -3.0 69 -5 -5 1004.4 1000.7
05 16.09 З 9
{14}
н/о н/о +3.4 -2.0 68 -3 -3 1004.7 1001.0
06 16.09 З 11
{15}
10 км осадки на расстоянии 9/8 700 м
[Cu Sc Ac trans]
+2.1 -2.4 72 -5 -5 1004.9 1001.2 -0.2
07 16.09 ЮЗ 12
{19}
н/о н/о +1.3 -1.9 79 -7 -7 1006.2 1002.5 0.0
08 16.09 ЮЗ 15
{21}
н/о н/о +0.9 -4.2 69 -8 -8 1007.2 1003.5
09 16.09 ЮЗ 16
{24}
н/о н/о +0.8 -4.6 67 -8 -8 1008.4 1004.6 0.0
10 16.09 ЮЗ 15
{23}
н/о н/о +1.1 -5.6 61 -8 -8 1009.6 1005.8
11 16.09 ЮЗ 14
{21}
н/о н/о +0.5 -5.9 62 -8 -8 1010.5 1006.7
12 16.09 ЮЗ 14
{21}
25 км осадки на расстоянии 9/9 800 м
[Cu Sc]
+0.4 -6.0 62 -8 -8 1011.8 1008.0 0.0
13 16.09 ЮЗ 15
{21}
н/о н/о +0.4 -5.0 67 -9 -9 1012.5 1008.7
14 16.09 ЮЗ 13
{22}
н/о н/о +0.3 -5.7 64 -8 -8 1013.5 1009.7
15 16.09 ЮЗ 13
{21}
н/о н/о +0.4 -5.2 66 -8 -8 1014.2 1010.4
16 16.09 ЮЗ 13
{22}
н/о н/о +0.5 -5.7 63 -8 -8 1014.6 1010.8
17 16.09 ЮЗ 16
{22}
н/о н/о +0.2 -4.6 70 -9 -9 1015.0 1011.2
18 16.09 ЮЗ 13
{21}
н/о н/о +0.5 -4.3 70 -8 -8 1015.7 1011.9 +3.7 0.0
19 16.09 ЮЗ 15
{19}
н/о н/о +0.8 -4.4 68 -8 -8 1015.9 1012.1
20 16.09 ЮЗ 12
{19}
н/о н/о +1.1 -4.8 65 -7 -7 1016.5 1012.7
21 16.09 ЮЗ 13
{18}
н/о н/о +1.1 -5.0 64 -7 -7 1016.9 1013.1
22 16.09 З 12
{18}
н/о н/о +1.2 -5.1 63 -7 -7 1017.5 1013.7
23 16.09 ЮЗ 13
{16}
н/о н/о +0.8 -5.2 64 -8 -8 1017.8 1014.0
00 17.09 ЮЗ 12
{16}
н/о н/о +0.7 -4.9 66 -7 -7 1018.5 1014.7
01 17.09 З 6
{15}
н/о н/о -0.2 -6.0 65 -6 -6 1019.0 1015.2
02 17.09 З 10
{14}
н/о н/о +0.2 -5.0 68 -8 -8 1019.0 1015.2
03 17.09 З 7
{13}
40 км 3/3 1300 м
[Sc]
+1.1 -5.4 62 -5 -5 1019.8 1016.0
04 17.09 З 12
{14}
н/о н/о +1.5 -5.2 61 -6 -6 1019.8 1016.0
05 17.09 З 8
{15}
н/о н/о +2.2 -5.0 59 -4 -4 1020.3 1016.5
06 17.09 З 9
{13}
60 км 1/1 1080 м
[Cu hum]
+2.9 -5.5 54 -3 -2 1020.1 1016.3 -0.3 0.0
07 17.09 З 6
{10}
н/о н/о +3.2 -5.0 55 -2 -2 1020.0 1016.2
08 17.09 З 3
{9}
н/о н/о +3.7 -5.8 50 +1 +1 1019.6 1015.8
09 17.09 СЗ 9
{12}
н/о н/о +3.6 -4.1 57 -2 -2 1019.3 1015.5
10 17.09 З 6
{16}
н/о н/о +4.3 -4.5 53 -1 -1 1018.4 1014.7
11 17.09 ЮЗ 3
{11}
н/о н/о +3.4 -5.0 54 0 0 1018.1 1014.3
12 17.09 СЗ 10
{13}
55 км 1/1 800 м
[Sc]
+2.3 -3.8 64 -5 -5 1017.7 1013.9
13 17.09 СЗ 13
{17}
н/о н/о +0.7 -4.7 67 -8 -8 1017.1 1013.3
14 17.09 СЗ 9
{16}
н/о н/о +0.5 -4.5 69 -7 -7 1017.1 1013.3
15 17.09 СЗ 10
{16}
н/о н/о +0.5 -4.5 69 -7 -7 1016.9 1013.1
16 17.09 СЗ 9
{20}
н/о н/о +0.6 -5.0 66 -7 -7 1016.5 1012.7
17 17.09 СЗ 12
{16}
н/о н/о +0.6 -4.4 69 -8 -8 1015.1 1011.3
18 17.09 СЗ 8
{17}
н/о н/о +0.6 -5.0 66 -6 -6 1014.7 1010.9 +4.9
19 17.09 СЗ 11
{14}
н/о н/о +1.2 -3.9 69 -7 -7 1013.0 1009.2
20 17.09 СЗ 15
{20}
н/о н/о +1.7 -1.9 77 -7 -7 1011.6 1007.8
21 17.09 СЗ 21
{26}
н/о н/о +2.5 -0.8 79 -7 -7 1009.6 1005.9
22 17.09 СЗ 21
{29}
н/о н/о +3.1 -0.7 76 -6 -6 1008.5 1004.8
23 17.09 СЗ 17
{30}
н/о н/о +3.1 -0.4 78 -6 -6 1008.4 1004.7
00 18.09 СЗ 16
{25}
н/о н/о +3.9 +0.1 76 -4 -4 1007.0 1003.3
01 18.09 СЗ 19
{25}
н/о н/о +4.2 +0.9 79 -4 -4 1005.1 1001.4
02 18.09 СЗ 16
{28}
н/о н/о +4.6 +1.6 81 -3 -3 1004.7 1001.0
03 18.09 СЗ 17
{28}
6000 м в посл. час дождь 9/8 180 м
[Cu Sc Ac und]
+5.4 +2.4 81 -2 -2 1003.9 1000.2 0.0
04 18.09 СЗ 11
{23}
н/о н/о +4.7 +2.1 83 -2 -2 1003.4 999.7
05 18.09 СЗ 12
{21}
н/о н/о +5.6 +2.8 82 -1 -1 1002.1 998.4
06 18.09 СЗ 12
{21}
10 км осадки на расстоянии 10/8 300 м
[Cu Sc Ac und]
+6.0 +3.0 81 -1 -1 1000.6 996.9 +0.4 0.2
07 18.09 СЗ 15
{24}
н/о н/о +7.2 +4.5 83 +1 +1 997.9 994.3 0.4
08 18.09 СЗ 18
{30}
н/о н/о +6.9 +4.4 84 -0 -0 996.2 992.6 1
09 18.09 СЗ 27
{39}
н/о н/о +7.8 +4.9 82 -0 -0 993.6 990.0 2
10 18.09 СЗ 24
{34}
н/о н/о +6.8 +4.1 83 -1 -1 993.4 989.8 1
11 18.09 СЗ 23
{31}
н/о н/о +6.3 +4.0 85 -2 -2 993.3 989.7 1
12 18.09 СЗ 22
{30}
4000 м слаб. дождь 10/10 300 м
[Cu Sc]
+6.2 +3.9 85 -2 -2 993.2 989.6 6
13 18.09 СЗ 20
{28}
н/о н/о +6.3 +4.0 85 -2 -2 992.8 989.2 1
14 18.09 СЗ 20
{26}
н/о н/о +6.2 +3.7 84 -2 -2 992.8 989.2 1
15 18.09 СЗ 16
{25}
н/о н/о +6.0 +3.7 85 -1 -1 992.1 988.5 3
16 18.09 СЗ 16
{23}
н/о н/о +5.8 +3.3 84 -2 -2 991.9 988.3 0.4
18 18.09 СЗ 10
{20}
н/о н/о +5.1 +2.9 86 -1 -1 991.7 988.1 +8.3 10
19 18.09 З 5
{10}
н/о н/о +5.0 +2.9 86 0 0 991.9 988.3 0.0
20 18.09 СЗ 10
{14}
н/о н/о +5.8 +2.4 79 -0 -0 992.4 988.8
21 18.09 ЮЗ 10
{15}
н/о н/о +5.2 +1.3 76 -1 -1 992.0 988.4 0.0
22 18.09 СЗ 9
{16}
н/о н/о +4.0 +0.3 77 -2 -2 992.8 989.1
23 18.09 СЗ 12
{16}
н/о н/о +3.4 -0.3 77 -4 -4 993.0 989.3
00 19.09 СЗ 11
{16}
н/о н/о +3.4 -0.3 77 -4 -4 993.5 989.8 0.0
01 19.09 СЗ 10
{15}
н/о н/о +3.6 -0.4 75 -3 -3 993.7 990.0
02 19.09 СЗ 13
{18}
н/о н/о +3.6 -0.4 75 -4 -4 994.0 990.3
03 19.09 СЗ 10
{16}
40 км 6/6 700 м
[Cu Sc]
+4.0 -0.6 72 -3 -2 994.5 990.8
04 19.09 СЗ 9
{15}
н/о н/о +4.9 -0.1 70 -1 -1 995.3 991.7
05 19.09 СЗ 3
{12}
н/о н/о +4.5 -1.3 66 +1 +1 995.7 992.0
06 19.09 СЗ 8
{13}
50 км 4/3 750 м
[Cu Sc Ci sp]
+6.1 -0.2 64 +1 +3 995.2 991.6 +3.1 10
07 19.09 СЗ 14
{18}
н/о н/о +6.5 +0.6 66 0 0 994.2 990.6
08 19.09 СЗ 12
{16}
н/о н/о +6.9 +0.3 63 +1 +1 994.3 990.7
09 19.09 СЗ 12
{17}
н/о н/о +6.8 +0.5 64 +1 +1 994.0 990.4
10 19.09 СЗ 12
{16}
н/о н/о +6.3 +0.2 65 0 0 993.7 990.1
11 19.09 СЗ 7
{15}
н/о н/о +5.8 -0.5 64 +1 +1 994.4 990.8
12 19.09 СЗ 8
{14}
50 км 3/3 750 м
[Cu Sc Ci sp]
+4.8 -1.2 65 -1 -1 994.2 990.6
13 19.09 СЗ 9
{13}
н/о н/о +3.1 -2.0 69 -4 -4 993.8 990.1
14 19.09 СЗ 3
{13}
н/о н/о +1.8 -2.9 71 -2 -2 994.4 990.7
15 19.09 З 7
{12}
н/о н/о +1.1 -4.0 69 -5 -5 994.1 990.4
16 19.09 СЗ 6
{10}
н/о н/о +1.4 -3.5 70 -5 -5 994.2 990.5
17 19.09 СЗ 6
{11}
н/о н/о +1.7 -3.4 69 -4 -4 993.7 990.0
18 19.09 СЗ 6
{10}
н/о н/о +1.5 -3.2 71 -5 -5 993.0 989.3 +7.4
19 19.09 СЗ 8
{11}
н/о н/о +1.5 -2.6 74 -5 -5 992.4 988.7
20 19.09 СЗ 9
{13}
н/о н/о +1.4 -1.8 79 -6 -6 992.0 988.3
21 19.09 СЗ 7
{11}
н/о н/о +1.7 -1.6 79 -5 -5 992.0 988.3
22 19.09 З 8
{17}
н/о н/о +2.0 -2.9 70 -4 -4 992.5 988.8
23 19.09 З 13
{19}
н/о н/о +1.4 -3.3 71 -7 -7 993.2 989.5
00 20.09 З 10
{17}
н/о н/о +1.9 -4.0 65 -5 -5 993.9 990.2
01 20.09 ЮЗ 8
{12}
н/о н/о +1.4 -3.5 70 -5 -5 995.2 991.5
02 20.09 ЮЗ 12
{15}
н/о н/о +0.3 -4.5 70 -8 -8 996.2 992.5 0.0
03 20.09 З 8
{14}
12 км в посл. час ливневой снег 9/8 300 м
[Cu Sc Ac und]
-0.8 -3.2 84 -8 -8 997.4 993.7 0.0
04 20.09 З 6
{12}
н/о н/о +0.2 -3.2 78 -6 -6 998.5 994.8
05 20.09 З 8
{11}
н/о н/о +2.0 -3.7 66 -5 -5 999.1 995.4
06 20.09 З 8
{11}
35 км осадки на расстоянии 4/4 900 м
[Cu med, cong Ac trans]
+2.9 -5.8 53 -3 -2 999.9 996.2 -1.0 0.0
07 20.09 З 10
{13}
н/о н/о +3.4 -5.5 52 -3 -3 1000.5 996.8
08 20.09 З 10
{14}
н/о н/о +2.5 -7.4 48 -4 -4 1000.8 997.1
09 20.09 З 10
{14}
н/о н/о +2.4 -6.5 52 -4 -4 1000.8 997.1
10 20.09 З 9
{15}
н/о н/о +2.1 -5.8 56 -5 -5 1001.1 997.4
11 20.09 СЗ 9
{13}
н/о н/о +2.5 -5.2 57 -4 -4 1000.8 997.1
12 20.09 СЗ 7
{13}
30 км 9/5 750 м
[Cu Sc Ac und]
+2.2 -4.1 63 -4 -4 1000.6 996.9
13 20.09 СЗ 11
{15}
н/о н/о +1.6 -3.5 69 -6 -6 1000.1 996.4
14 20.09 СЗ 11
{15}
н/о н/о +1.5 -2.8 73 -6 -6 999.5 995.8
15 20.09 СЗ 11
{16}
н/о н/о +2.1 -2.2 73 -5 -5 998.8 995.1
17 20.09 СЗ 12
{17}
н/о н/о +2.7 -0.2 81 -5 -5 997.4 993.7
18 20.09 СЗ 11
{15}
н/о н/о +2.9 +0.1 82 -5 -5 997.2 993.5 +3.8
19 20.09 СЗ 9
{14}
н/о н/о +2.9 +0.1 82 -4 -4 997.2 993.5
22 20.09 СЗ 10
{16}
н/о н/о +2.6 -0.5 80 -5 -5 997.6 993.9
23 20.09 З 13
{17}
н/о н/о +3.1 -1.8 70 -5 -5 998.0 994.3

 

Местоположение метеостанции Порт-о-Франсе (Франц. Южн. Территории): широта -49.30 долгота 70.20 высота над уровнем моря 30 м.

В архиве по умолчанию представлена погода в Порт-о-Франсе за последнюю неделю. Архивные данные за месяц целиком и за предыдущие месяцы, начиная с января 2011 года, Вы можете получить, выбрав интересующий диапазон дат из раскрывающегося списка и нажав кнопку "Ввод!".


*Определитесь, кто Вы:
робот инопланетянин человек

Внимание! Время в таблицах - всемирное. Для получения местного времени необходимо прибавить поправку, которая равна 5 ч.

Смотрите также архив погоды в соседних городах и на ближайших метеорологических станциях:

Погода на Острове Херд (Тасмания, Австралия) (489 км)
Погода на Базе Alfred Faure (Франц. Южн. Территории) (1401 км)
Погода в Мартен-де-Вивье (Франц. Южн. Территории) (1406 км)
Погода на Моусоне (Антарктида) (2076 км)
Погода на Davis (Whoop Whoop) (Антарктида) (2184 км)
Погода на Davis (Антарктида) (2186 км)

Пояснения к столбцам:

Ветер - указаны скорость ветра в м/с - средняя за 10 мин, порывы в срок и между сроками (в фигурных скобках) и направление, откуда дует ветер: С - северный, СВ - северо-восточный, В - восточный, ЮВ - юго-восточный, Ю - южный, ЮЗ - юго-западный, З - западный, СЗ - северо-западный.
Видимость - горизонтальная дальность видимости в метрах или километрах. При видимости от 1 до 10 км при отсутствии осадков обычно наблюдается дымка, при ухудшении видимости до 1 км и менее - туман. В сухую погоду видимость может ухудшаться дымом, пылью или мглою.
Явления - указаны атмосферные явления, наблюдавшиеся в срок или в последний час перед сроком; фигурными скобками обозначены явления, наблюдавшиеся между сроками (за 1-3 часа до срока); квадратными скобками обозначены град или гололедные отложения с указанием их диаметра в мм.
Облачность - указаны через наклонную черту общая и нижняя облачность в баллах и высота нижней границы облаков в метрах; квадратными скобками обозначены формы облаков: Ci - перистые, Cs - перисто-слоистые, Cc - перисто-кучевые, Ac - высококучевые, As - высокослоистые, Sc - слоисто-кучевые, Ns - слоисто-дождевые, Cu - кучевые, Cb - кучево-дождевые. Подробнее классификацию облаков см. в Атласе облаков (PDF).
T - Температура воздуха - температура, измеренная на высоте 2 м над землей.
Td - Температура точки росы - температура, при понижении до которой содержащийся в воздухе водяной пар достигнет насыщения.
f - Относительная влажность воздуха - влажноcть воздуха, измеренная на высоте 2 м над землей.
Te - Эффективная температура - температура, которую ощущает одетый по сезону человек в тени. Характеристика душности погоды. При расчете учитывается влияние влажности воздуха и скорости ветра на теплоощущения человека.
Tes - Эффективная температура на солнце - температура, которую ощущает человек, с поправкой на солнечный нагрев. Характеристика знойности погоды. Зависит от высоты солнца над горизонтом, облачности и скорости ветра. Ночью, в пасмурную погоду, а также при ветре 12 м/с и более поправка равна нулю.
P - Атмосферное давление - приведенное к уровню моря атмосферное давление.
Po - Атмосферное давление - измеренное на уровне метеостанции атмосферное давление.
Tmin - Минимальная температура - минимум температуры воздуха на высоте 2 м над землей.
Tmax - Максимальная температура - максимум температуры воздуха на высоте 2 м над землей.
R - Количество осадков - Количество выпавших осадков за период времени, мм. При наведении курсора мыши на число - период времени, за который выпало указанное количество осадков.
R24 - Количество осадков - Количество выпавших осадков за 24 часа, мм.
S - Снежный покров - Высота снежного покрова, см. При наведении курсора мыши на число - состояние снежного покрова и степень покрытия местности в баллах.